Torna al catalogo

STARLINK-4572

AttivoComunicazioniSSO
NORAD 53692·PAYLOAD·🇺🇸 United States

Lanciato Aug 31, 2022 da Vandenberg Space Force Base

Loading…

Prossimi Passaggi (prossime 24 ore)

TLE

AggiornatoSource: CelesTrak SupGP

Epoca: Sep 14, 2026, 20:45 UTC

1 53692C 22105AW  26257.86506944 -.00022034  00000+0 -72180-3 0  2579
2 53692  97.5937 148.2559 0002159  87.8330 264.3252 15.31724846    13

Traccia STARLINK-4572 in tempo reale con AllMySat

Download on the App Store